Date String (YYYY-MM-DD hh:mm:ss) UTC,Instrument flags,absolute air pressure of the measurement (hPa),sample flow rate (lpm),inlet stack bypass flow (lpm),air temperature of the measurement (°C),ambient temperature measured by the external sensor (°C),aerosol sample conditioner tube jacket temperature (°C),OPC LED temperature (°C),internal box temperature (°C),relative humidity of the measurement (%),span deviation,mass concentration of particles derived from Lorenz-Mie calculation of OPC scattering (μg/m³),mass concentration of particles derived from Lorenz-Mie calculation of OPC scattering (μg/m³),mass concentration of particles derived from Lorenz-Mie calculation of OPC scattering (μg/m³)
DateTimeUTC,F1_M11,P_M11,Q1_M11,Q2_M11,T1_M11,T2_M11,T3_M11,T4_M11,T5_M11,U1_M11,ZSPAN_M11,X0_M11,X2_M11,X1_M11
2024-04-16 13:00:00,SystemResetWarning,0819.1,4.99,000.00,022.8,021.9,000.0,031.4,024.6,024.9,0000.0,0006.63,0001.06,0000.40
2024-04-16 13:01:00,SystemResetWarning,0819.2,4.99,000.00,022.8,021.9,000.0,031.4,024.6,024.8,0000.0,0005.27,0000.98,0000.40
2024-04-16 13:02:00,SystemResetWarning,0819.1,5.00,000.00,022.8,021.9,000.0,031.4,024.6,024.7,0000.0,0005.20,0000.97,0000.41
2024-04-16 13:03:00,SystemResetWarning,0819.1,5.01,000.00,022.8,021.9,000.0,031.4,024.6,024.7,0000.0,0005.07,0000.93,0000.40
2024-04-16 13:04:00,SystemResetWarning,0819.0,5.01,000.00,022.8,021.9,000.0,031.4,024.6,024.7,0000.0,0004.79,0000.90,0000.40
2024-04-16 13:05:00,SystemResetWarning,0819.0,5.00,000.00,022.8,021.9,000.0,031.4,024.6,024.7,0000.0,0003.57,0000.86,0000.41
2024-04-16 13:06:00,SystemResetWarning,0819.1,4.99,000.00,022.8,021.9,000.0,031.3,024.6,024.7,0000.0,0004.74,0000.85,0000.41
2024-04-16 13:07:00,SystemResetWarning,0819.1,4.99,000.00,022.7,021.9,000.0,031.3,024.6,024.7,0000.0,0005.53,0000.85,0000.42
2024-04-16 13:08:00,SystemResetWarning,0819.1,4.99,000.00,022.7,021.9,000.0,031.3,024.6,024.5,0000.0,0004.38,0000.83,0000.41
2024-04-16 13:09:00,SystemResetWarning,0819.1,4.99,000.00,022.7,021.9,000.0,031.3,024.6,024.2,0000.0,0004.57,0000.79,0000.39
2024-04-16 13:10:00,SystemResetWarning,0819.0,5.01,000.00,022.7,021.9,000.0,031.3,024.6,023.3,0000.0,0004.60,0000.77,0000.38
2024-04-16 13:11:00,SystemResetWarning,0819.0,5.00,000.00,022.7,021.9,000.0,031.3,024.6,023.1,0000.0,0004.56,0000.75,0000.37
2024-04-16 13:12:00,SystemResetWarning,0819.0,5.01,000.00,022.7,021.9,000.0,031.3,024.6,023.9,0000.0,0004.57,0000.75,0000.36
2024-04-16 13:13:00,SystemResetWarning,0819.0,5.00,000.00,022.7,021.9,000.0,031.3,024.6,023.8,0000.0,0005.50,0000.73,0000.35
2024-04-16 13:14:00,SystemResetWarning,0819.0,5.00,000.00,022.7,021.9,000.0,031.3,024.5,023.2,0000.0,0005.34,0000.68,0000.34
2024-04-16 13:15:00,SystemResetWarning,0819.1,5.00,000.00,022.7,021.9,000.0,031.3,024.5,023.5,0000.0,0005.33,0000.66,0000.33
2024-04-16 13:16:00,SystemResetWarning,0819.0,5.00,000.00,022.7,021.9,000.0,031.3,024.5,023.5,0000.0,0004.83,0000.64,0000.31
2024-04-16 13:17:00,SystemResetWarning,0819.1,5.00,000.00,022.7,021.9,000.0,031.3,024.5,023.3,0000.0,0003.75,0000.62,0000.30
2024-04-16 13:18:00,SystemResetWarning,0819.1,5.00,000.00,022.7,021.9,000.0,031.3,024.5,023.6,0000.0,0003.14,0000.61,0000.29
2024-04-16 13:19:00,SystemResetWarning,0819.0,5.00,000.00,022.7,021.9,000.0,031.3,024.6,024.0,0000.0,0004.42,0000.67,0000.29
2024-04-16 13:20:00,SystemResetWarning,0819.1,5.00,000.00,022.7,021.9,000.0,031.3,024.6,023.6,0000.0,0004.19,0000.68,0000.29
2024-04-16 13:21:00,SystemResetWarning,0819.1,5.00,000.00,022.7,022.0,000.0,031.3,024.6,023.4,0000.0,0004.15,0000.66,0000.29
2024-04-16 13:22:00,SystemResetWarning,0819.0,5.00,000.00,022.7,022.0,000.0,031.3,024.6,023.4,0000.0,0004.25,0000.68,0000.30
2024-04-16 13:23:00,SystemResetWarning,0819.1,5.00,000.00,022.7,022.0,000.0,031.3,024.6,023.4,0000.0,0004.42,0000.70,0000.31
2024-04-16 13:24:00,SystemResetWarning,0819.0,4.99,000.00,022.7,022.0,000.0,031.3,024.6,023.1,0000.0,0003.60,0000.70,0000.30
2024-04-16 13:25:00,SystemResetWarning,0819.1,4.98,000.00,022.7,022.0,000.0,031.3,024.6,022.6,0000.0,0003.53,0000.74,0000.30
2024-04-16 13:26:00,SystemResetWarning,0819.1,5.00,000.00,022.7,022.0,000.0,031.3,024.6,022.6,0000.0,0003.65,0000.78,0000.31
2024-04-16 13:27:00,SystemResetWarning,0819.1,5.01,000.00,022.7,022.0,000.0,031.3,024.6,022.9,0000.0,0003.60,0000.77,0000.31
2024-04-16 13:28:00,SystemResetWarning,0819.1,5.01,000.00,022.7,022.0,000.0,031.3,024.6,022.7,0000.0,0003.61,0000.76,0000.31
2024-04-16 13:29:00,SystemResetWarning,0819.0,5.00,000.00,022.8,022.0,000.0,031.3,024.6,022.8,0000.0,0003.56,0000.78,0000.31
2024-04-16 13:30:00,SystemResetWarning,0819.1,4.99,000.00,022.8,022.0,000.0,031.3,024.6,022.4,0000.0,0002.52,0000.69,0000.30
2024-04-16 13:31:00,SystemResetWarning,0819.3,5.00,000.00,022.8,022.0,000.0,031.3,024.6,022.6,0000.0,0002.54,0000.68,0000.29
2024-04-16 13:32:00,SystemResetWarning,0819.1,5.02,000.00,022.8,022.0,000.0,031.3,024.6,022.5,0000.0,0002.53,0000.67,0000.29
2024-04-16 13:33:00,SystemResetWarning,0819.2,5.00,000.00,022.8,022.1,000.0,031.3,024.7,022.4,0000.0,0002.80,0000.68,0000.28
2024-04-16 13:34:00,SystemResetWarning,0819.2,5.00,000.00,022.8,022.1,000.0,031.3,024.7,022.2,0000.0,0002.68,0000.68,0000.28
2024-04-16 13:35:00,SystemResetWarning,0819.2,5.00,000.00,022.8,022.1,000.0,031.3,024.7,022.2,0000.0,0002.56,0000.67,0000.27
2024-04-16 13:36:00,SystemResetWarning,0819.2,4.99,000.00,022.8,022.1,000.0,031.3,024.7,021.8,0000.0,0002.48,0000.66,0000.27
2024-04-16 13:37:00,SystemResetWarning,0819.2,4.99,000.00,022.8,022.1,000.0,031.3,024.7,020.6,0000.0,0002.42,0000.61,0000.26
2024-04-16 13:38:00,SystemResetWarning,0819.2,5.00,000.00,022.8,022.1,000.0,031.3,024.7,021.2,0000.0,0002.83,0000.61,0000.26
2024-04-16 13:39:00,SystemResetWarning,0819.2,5.00,000.00,022.8,022.1,000.0,031.3,024.7,021.5,0000.0,0002.89,0000.63,0000.26
2024-04-16 13:40:00,SystemResetWarning,0819.2,5.01,000.00,022.8,022.2,000.0,031.3,024.7,021.8,0000.0,0002.90,0000.66,0000.26
2024-04-16 13:41:00,SystemResetWarning,0819.2,5.00,000.00,022.8,022.2,000.0,031.3,024.7,022.1,0000.0,0002.90,0000.69,0000.27
2024-04-16 13:42:00,SystemResetWarning,0819.2,5.00,000.00,022.8,022.2,000.0,031.3,024.8,021.5,0000.0,0002.72,0000.72,0000.27
2024-04-16 13:43:00,SystemResetWarning,0819.3,5.00,000.00,022.9,022.2,000.0,031.3,024.8,021.6,0000.0,0002.74,0000.72,0000.28
2024-04-16 13:44:00,SystemResetWarning,0819.3,5.00,000.00,022.9,022.2,000.0,031.3,024.8,021.5,0000.0,0002.31,0000.72,0000.28
2024-04-16 13:45:00,SystemResetWarning,0819.3,5.00,000.00,022.9,022.2,000.0,031.3,024.8,020.3,0000.0,0002.90,0000.75,0000.28
2024-04-16 13:46:00,SystemResetWarning,0819.3,5.00,000.00,022.9,022.2,000.0,031.4,024.8,019.9,0000.0,0003.10,0000.74,0000.28
2024-04-16 13:47:00,SystemResetWarning,0819.3,5.00,000.00,022.9,022.3,000.0,031.4,024.8,019.7,0000.0,0003.06,0000.71,0000.27
2024-04-16 13:48:00,SystemResetWarning,0819.4,5.01,000.00,022.9,022.3,000.0,031.4,024.8,020.2,0000.0,0003.67,0000.71,0000.28
2024-04-16 13:49:00,SystemResetWarning,0819.3,5.01,000.00,022.9,022.3,000.0,031.4,024.8,020.4,0000.0,0004.09,0000.72,0000.28
2024-04-16 13:50:00,SystemResetWarning,0819.3,5.00,000.00,022.9,022.3,000.0,031.4,024.8,019.8,0000.0,0004.14,0000.69,0000.28
2024-04-16 13:51:00,SystemResetWarning,0819.4,4.99,000.00,022.9,022.3,000.0,031.4,024.8,019.6,0000.0,0004.26,0000.66,0000.28
2024-04-16 13:52:00,SystemResetWarning,0819.4,4.99,000.00,022.9,022.3,000.0,031.4,024.8,020.6,0000.0,0004.03,0000.65,0000.27
2024-04-16 13:53:00,SystemResetWarning,0819.3,5.00,000.00,023.0,022.4,000.0,031.4,024.9,020.2,0000.0,0003.90,0000.59,0000.26
2024-04-16 13:54:00,SystemResetWarning,0819.4,5.00,000.00,023.0,022.4,000.0,031.4,024.9,019.9,0000.0,0003.83,0000.57,0000.26
2024-04-16 13:55:00,SystemResetWarning,0819.4,5.01,000.00,023.0,022.4,000.0,031.4,024.9,020.3,0000.0,0003.79,0000.55,0000.25
2024-04-16 13:56:00,SystemResetWarning,0819.3,5.00,000.00,023.0,022.4,000.0,031.4,024.9,020.1,0000.0,0003.11,0000.49,0000.25
2024-04-16 13:57:00,SystemResetWarning,0819.5,5.00,000.00,023.0,022.4,000.0,031.4,024.9,019.3,0000.0,0002.93,0000.48,0000.25
2024-04-16 13:58:00,SystemResetWarning,0819.3,4.99,000.00,023.0,022.3,000.0,031.4,024.9,019.7,0000.0,0002.88,0000.47,0000.25
2024-04-16 13:59:00,SystemResetWarning,0819.4,4.99,000.00,023.0,022.3,000.0,031.4,024.9,020.6,0000.0,0002.36,0000.44,0000.25
